If you wish to contribute or participate in the discussions about articles you are invited to join SKYbrary as a registered user

 Actions

Bradshaw Army Airfield

From SKYbrary Wiki

PHSF
Airport
ICAO: PHSF – IATA: BSF
Summary
Name Bradshaw Army Airfield
Region North America
Territory Hawaii US.gif
Location Pohakuloa, Hawaii
Serving Bradshaw Field
Elevation 1,886.712 m
6,190 ft
6,190 ft1,886.712 m
Type medium airport
Coordinates 19° 45' 36.20" N, 155° 33' 13.38" W
Runways
Designator Length Width Surface ROPS
9/27 1126 m3,694.226 ft
27 m88.583 ft
ASP /


METAR
Observation PHSF 191558Z AUTO 33003KT 10SM CLR 12/07 A3033 RMK AO2 SLP166 T01160073 TSNO $
Station Bradshaw Army Air Field / Hawaii
Date/Time 19 October 2019 15:58:00
Wind direction 330°
Wind speed 03 kts
Lowest cloud amount n/a
Temperature 11.6°C
Dew point 7.3°C
Humidity 74%
QNH hPa
Weather condition n/a

Maps

Terrain

Loading map...

Airport Layout

Loading map...


Accidents & Serious Incidents at or in vicinity of PHSF

None on SKYbrary